GW2586 Weather Reports


time (UTC)temp
C
wind
direction
speed
KPH
gust
KPH
rain 1hr
cm
rain 24hr
cm
rain mn
cm
humidity
%
barometer
mb
20260510203037 13 0 0.0 1.6 0.05 0.05 0.05 88 1013.0
20260510201539 13 0 0.0 4.8 0.05 0.05 0.05 86 1013.1
20260510200038 15 89 0.0 9.7 0.03 0.03 0.03 79 1013.2
20260510194542 16 140 1.6 9.7 0.00 0.13 0.00 69 1012.9
20260510193036 17 120 3.2 14.5 0.00 0.13 0.00 65 1012.7
20260510191542 18 55 3.2 16.1 0.00 0.13 0.00 64 1012.4
20260510190044 18 111 8.0 20.9 0.00 0.13 0.00 64 1012.6
20260510184549 18 92 3.2 14.5 0.00 0.30 0.00 69 1012.5
20260510183038 17 253 4.8 14.5 0.00 0.30 0.00 69 1012.5
20260510181538 17 124 3.2 11.3 0.00 0.30 0.00 75 1012.7
20260510180037 16 215 6.4 14.5 0.00 0.30 0.00 77 1012.9
20260510174542 16 91 4.8 14.5 0.00 0.41 0.00 73 1012.3
20260510173041 18 191 8.0 12.9 0.00 0.41 0.00 65 1012.1
20260510171540 18 142 6.4 16.1 0.00 0.41 0.00 69 1012.2
20260510170038 18 197 6.4 20.9 0.00 0.41 0.00 70 1012.1
20260510164539 17 138 3.2 11.3 0.00 0.48 0.00 71 1012.3
20260510163037 17 187 8.0 12.9 0.00 0.48 0.00 74 1012.6
20260510161539 16 155 6.4 12.9 0.00 0.48 0.00 75 1012.7
20260510160049 17 253 1.6 9.7 0.00 0.48 0.00 74 1012.6
20260510154540 17 203 3.2 12.9 0.00 0.53 0.00 73 1012.7
20260510153040 18 205 4.8 17.7 0.00 0.53 0.00 72 1012.7
20260510151536 17 158 9.7 19.3 0.00 0.53 0.00 75 1012.6
20260510150043 16 184 4.8 14.5 0.00 0.53 0.00 77 1012.3
20260510144540 16 153 4.8 17.7 0.00 0.56 0.00 80 1012.3
20260510143038 15 217 6.4 16.1 0.00 0.56 0.00 81 1012.2
20260510141540 15 212 0.0 17.7 0.00 0.56 0.00 85 1012.2
20260510140040 14 105 4.8 14.5 0.00 0.56 0.00 86 1012.2
20260510134540 13 65 1.6 9.7 0.00 0.58 0.00 85 1012.2
20260510133036 13 187 4.8 11.3 0.00 0.58 0.00 86 1012.3
20260510131541 13 221 3.2 17.7 0.00 0.58 0.00 88 1012.4
20260510130039 12 128 4.8 9.7 0.00 0.58 0.00 89 1012.6
20260510124543 12 128 4.8 12.9 0.00 0.58 0.00 91 1012.3
20260510123037 11 240 0.0 8.0 0.00 0.58 0.00 94 1012.0
20260510121543 11 22 3.2 6.4 0.00 0.58 0.00 94 1012.0
20260510120039 10 152 0.0 6.4 0.00 0.58 0.00 95 1011.9
20260510114543 10 0 0.0 3.2 0.00 0.58 0.00 95 1011.9
20260510113041 10 0 0.0 4.8 0.00 0.58 0.00 95 1011.9
20260510111540 10 222 0.0 9.7 0.00 0.58 0.00 95 1012.0
20260510110037 10 273 0.0 4.8 0.00 0.58 0.00 95 1011.7
20260510104539 10 215 3.2 17.7 0.00 0.76 0.00 95 1011.7
20260510103048 10 82 1.6 8.0 0.00 0.76 0.00 95 1011.5
20260510101540 10 0 0.0 8.0 0.00 0.76 0.00 96 1011.3
20260510100041 9 0 0.0 9.7 0.00 0.76 0.00 96 1011.0
20260510094545 9 300 0.0 6.4 0.00 1.07 0.00 96 1010.8
20260510093041 9 150 3.2 8.0 0.00 1.07 0.00 96 1010.8
20260510091537 9 283 0.0 4.8 0.00 1.07 0.00 95 1010.4
20260510090039 9 0 0.0 4.8 0.00 1.07 0.00 95 1010.2
20260510084542 9 323 0.0 9.7 0.00 1.32 0.00 95 1009.7
20260510083041 9 205 1.6 14.5 0.00 1.32 0.00 95 1010.1
20260510081543 9 193 4.8 11.3 0.00 1.32 0.00 95 1010.7
20260510080040 9 192 1.6 9.7 0.00 1.32 0.00 95 1011.0
20260510074537 9 200 0.0 9.7 0.00 1.40 0.00 95 1011.3
20260510073044 9 296 0.0 11.3 0.00 1.40 0.00 95 1011.5
20260510071542 9 0 0.0 8.0 0.00 1.40 0.00 95 1011.5
20260510070046 9 214 1.6 4.8 0.00 1.40 0.00 95 1011.3
20260510064538 9 0 0.0 6.4 0.00 1.40 0.00 95 1010.9
20260510063039 9 292 0.0 8.0 0.00 1.40 0.00 95 1010.7
20260510061536 9 0 1.6 8.0 0.00 1.40 0.00 95 1010.7
20260510060037 9 0 0.0 6.4 0.00 1.40 0.00 95 1010.6
20260510054551 9 0 0.0 11.3 0.00 1.40 0.00 95 1010.9
20260510053043 8 346 1.6 3.2 0.00 1.40 0.00 95 1010.8
20260510051540 8 0 0.0 3.2 0.00 1.40 0.00 94 1010.8
20260510050043 9 0 0.0 3.2 0.00 1.40 0.00 94 1010.8
20260510044542 9 352 0.0 3.2 0.00 1.40 0.00 94 1010.7
20260510043036 9 278 1.6 11.3 0.00 1.40 0.00 94 1010.6
20260510041553 9 0 1.6 6.4 0.00 1.40 0.00 94 1010.7
20260510040043 9 0 0.0 3.2 0.00 1.40 0.00 94 1010.9
20260510034542 9 274 0.0 3.2 0.00 1.40 1.40 92 1010.9
20260510033045 10 0 0.0 8.0 0.00 1.40 1.40 92 1010.6
20260510031549 10 0 4.8 9.7 0.00 1.40 1.40 93 1010.6
20260510030038 10 5 0.0 6.4 0.00 1.40 1.40 93 1010.5
20260510024541 10 0 0.0 0.0 0.00 1.40 1.40 92 1010.7
20260510023040 10 0 0.0 3.2 0.00 1.40 1.40 92 1010.4
20260510021541 10 245 0.0 6.4 0.00 1.40 1.40 92 1010.7
20260510020037 10 0 0.0 6.4 0.00 1.40 1.40 92 1010.8
20260510014536 10 19 0.0 4.8 0.00 1.40 1.40 93 1010.6
20260510013042 10 0 0.0 8.0 0.00 1.40 1.40 93 1010.7
20260510011538 10 340 1.6 6.4 0.00 1.40 1.40 93 1010.6
20260510010038 10 314 0.0 3.2 0.00 1.40 1.40 92 1010.7
20260510004545 10 0 0.0 3.2 0.00 1.40 1.40 92 1010.4
20260510003038 10 0 0.0 6.4 0.00 1.40 1.40 92 1010.0
20260510001537 10 0 0.0 4.8 0.00 1.40 1.40 91 1009.9
20260510000037 10 0 3.2 9.7 0.00 1.40 1.40 91 1009.7
20260509234541 10 357 3.2 9.7 0.00 1.40 1.40 91 1009.5
20260509233043 10 47 1.6 8.0 0.00 1.40 1.40 91 1009.3
20260509231544 11 0 0.0 12.9 0.00 1.40 1.40 91 1009.4
20260509230040 10 134 3.2 14.5 0.00 1.40 1.40 91 1009.4
20260509224537 10 352 3.2 9.7 0.00 1.40 1.40 92 1009.5
20260509223047 10 262 1.6 14.5 0.00 1.40 1.40 93 1009.6
20260509221541 10 155 1.6 9.7 0.00 1.40 1.40 93 1009.7
20260509220041 10 307 3.2 12.9 0.00 1.40 1.40 94 1009.7
20260509214541 10 259 1.6 9.7 0.00 1.40 1.40 94 1009.7
20260509213038 10 0 3.2 12.9 0.00 1.40 1.40 94 1009.7
20260509211540 10 0 3.2 9.7 0.00 1.40 1.40 94 1009.9
20260509210049 10 229 0.0 14.5 0.00 1.40 1.40 94 1009.9
20260509204543 10 262 1.6 12.9 0.03 1.40 1.40 94 1010.1